Regional Weather Roundup
Issued by NWS Albany, NY

Home | Current Version | Previous Version | Text Only | Print | Product List | Glossary On
Versions: 1 2 3 4 5 6 7 8 9 10 11 12 13 14 15 16 17 18 19 20 21 22 23 24 25 26 27 28
000
ASUS41 KALY 151310
RWRALY

NEW YORK STATE HOURLY WEATHER ROUNDUP
NATIONAL WEATHER SERVICE ALBANY NY
800 AM EST SUN JAN 15 2017

NOTE: "FAIR" INDICATES FEW OR NO CLOUDS BELOW 12,000 FEET WITH NO
SIGNIFICANT WEATHER AND/OR NO OBSTRUCTIONS TO VISIBILITY.

NYZ032-033-038>043-046>054-057>066-NYZ062>081-082-084-151400-
EAST


CITY           SKY/WX    TMP DP  RH WIND       PRES   REMARKS
ALBANY         CLOUDY    26  18  71 W5        30.33R WCI  20
GLENS FALLS    MOCLDY    19  12  74 CALM      30.31R
POUGHKEEPSIE   CLEAR     17  15  92 CALM      30.33R
NEWBURGH       CLEAR     18  18 100 CALM      30.32R
MONTGOMERY     CLEAR     26  17  68 VRB3      30.31R
WHITE PLAINS   CLEAR     24  20  84 N5        30.31R WCI  18
ISLIP          PTCLDY    26  24  92 N10       30.32R WCI  16
NEW YORK CITY  PTCLDY    33  22  63 NW14      30.34R WCI  23
CENTRAL PARK   CLEAR     30  21  69 VRB5      30.36R WCI  25
$$

NYZ005>009-017-018-044>046-055-056-151400-
CENTRAL


CITY           SKY/WX    TMP DP  RH WIND       PRES   REMARKS
FULTON         CLOUDY    29  20  69 NW14      30.36R WCI  18
SYRACUSE       CLOUDY    27  21  78 W8        30.36R WCI  19
ROME           CLOUDY    22  19  89 W3        30.36R
ELMIRA         CLOUDY    22  17  81 SW7       30.36S WCI  13
BINGHAMTON     CLOUDY    21  18  88 W5        30.29R WCI  15
MONTICELLO     PTCLDY    21  18  86 NW8       30.28R WCI  12
$$

NYZ026>034-041>043-087-151400-
NORTH


CITY           SKY/WX    TMP DP  RH WIND       PRES   REMARKS
WATERTOWN      CLEAR     17  15  92 CALM      30.38R
FORT DRUM      NOT AVBL
OGDENSBURG     FAIR      21  18  88 W5        30.37R WCI  14
MASSENA        CLOUDY    22  16  78 W8        30.38R WCI  12
SARANAC LAKE   LGT SNOW  19  12  74 NW8       30.23R WCI   9
PLATTSBURGH    FLURRIES  25  15  66 N13       30.33R WCI  14
$$

NYZ001>004-010>016-019>021-085-151400-
WEST


CITY           SKY/WX    TMP DP  RH WIND       PRES   REMARKS
NIAGARA FALLS  CLOUDY    26  20  77 CALM      30.39R
BUFFALO        CLOUDY    25  19  78 W6        30.39R WCI  18
DUNKIRK        CLOUDY    22  20  92 S3        30.41R
JAMESTOWN      CLEAR     18  14  86 CALM      30.34R
WELLSVILLE     PTCLDY    21  16  81 NW7       30.31S WCI  12
ROCHESTER      CLOUDY    27  21  78 W8        30.38S WCI  19
PENN YAN       CLOUDY    27  18  69 SW3       30.36R
$$

             KEY
       WCI = WIND CHILL INDEX
       VSB = VISIBILITY
       HX  = HEAT INDEX
$$




USA.gov is the U.S. government's official web portal to all federal, state and local government web resources and services.